星链-34709 (STARLINK-34709)

导读 | 豆包AI

STARLINK-34709是美国太空探索技术公司(SpaceX)星链计划中的一颗卫星,于2025年7月19日成功发射。星链项目旨在构建全球卫星互联网星座,为全球偏远地区、海洋等网络覆盖薄弱区域提供高速宽带服务,该卫星的发射进一步扩充了星链星座的规模,推动了全球卫星互联网组网进程。

基本信息
目录编号:
64844
目录名称:
STARLINK-34709
国际标识:
2025-152C
轨道中心:
EARTH
卫星名称:
星链-34709
卫星全名:
星链-34709 (STARLINK-34709)
卫星状态:
在轨 (已飞行284 天)
发射日期:
2025-07-19 UTC
国别 :
美国 (US)
星等 :
--
轨道信息
数据来源 国际轨道数据 AOE轨道数据
星历时间 2026-04-29T12:29:25+0800
9小时前
查看轨道信息
2026-04-26T23:00:00+0800
2天前
查看轨道信息
半长轴 6927.619km 6927.666km
偏心率 0.0002141 0.0001808
轨道倾角 97.558° 97.567°
近地点辐角 79.087° 76.556°
升交点赤经 335.209° 332.698°
平近点角 281.060° 84.818°
近地点 547.998km 548.276km
远地点 550.966km 550.782km
周期 95.639分钟 95.640分钟
每日圈数 15.056598 15.056443
详细信息
固有亮度:
5
最大亮度:
2.5
卫星平台:
Starlink V1.0
覆盖范围:
全球
运营商:
太空探索技术公司
运营商所在国:
美国
制造商(研发单位):
太空探索技术公司
制造商所在国:
美国
使用方式:
暂无
卫星简介
Starlink 计划是 SpaceX 推出的全球卫星互联网项目,通过发射低轨道卫星,为全球尤其是偏远地区提供高速、低延迟的互联网服务。自 2019 年起,Starlink 已部署数千颗卫星,旨在缩小全球数字鸿沟,推动互联网普及。该项目还为军事、航空等行业提供通信支持,带来广泛经济效益。
2D轨道图
3D轨道图
轨道高度分析图
轨道倾角分析图
轨道综合分析图
查看轨道综合分析图